AXB424 VEGT-VOBL

Flight info

Callsign AXB424
Flight time 2h 6m
Altitude 38000
Route ATOGA1B ATOGA R472 RAJ B209 GOSBI V41 DGP DCT ELPED DCT MEPOL DCT VVZ W47 BBZ W153 TELUV TELUV7E
Aircraft B38M/M-SDE1FGHILORVWXY/HB1

Departure

Time 2026-05-06 15:55
Airport Lokpriya Gopinath Bordoloi International Airport (VEGT)

Arrival

Time 2026-05-06 18:02
Airport Kempegowda International Airport Bengaluru (VOBL)
Time Latitude Longitude Altitude Speed Heading
2026-05-06 15:25 26.10513 91.58709 175 ft 0 kts 113°
2026-05-06 15:42 26.10515 91.58704 175 ft 2 kts 112°
2026-05-06 15:43 26.10520 91.58687 175 ft 2 kts 103°
2026-05-06 15:43 26.10522 91.58669 175 ft 2 kts 89°
2026-05-06 15:43 26.10519 91.58651 175 ft 2 kts 62°
2026-05-06 15:43 26.10508 91.58636 175 ft 2 kts 35°
2026-05-06 15:44 26.10497 91.58629 174 ft 1 kts 23°
2026-05-06 15:44 26.10494 91.58628 174 ft 0 kts 22°
2026-05-06 15:48 26.10496 91.58629 174 ft 1 kts 22°
2026-05-06 15:48 26.10520 91.58639 175 ft 5 kts 20°
2026-05-06 15:48 26.10545 91.58626 175 ft 4 kts 293°
2026-05-06 15:49 26.10555 91.58596 176 ft 4 kts 296°
2026-05-06 15:49 26.10570 91.58563 177 ft 5 kts 294°
2026-05-06 15:49 26.10584 91.58521 177 ft 7 kts 285°
2026-05-06 15:49 26.10558 91.58480 177 ft 8 kts 207°
2026-05-06 15:50 26.10491 91.58447 175 ft 13 kts 202°
2026-05-06 15:50 26.10394 91.58402 172 ft 17 kts 203°
2026-05-06 15:50 26.10278 91.58348 172 ft 19 kts 203°
2026-05-06 15:50 26.10144 91.58290 171 ft 22 kts 203°
2026-05-06 15:51 26.10000 91.58221 173 ft 23 kts 203°
2026-05-06 15:51 26.09852 91.58152 174 ft 24 kts 202°
2026-05-06 15:51 26.09691 91.58079 175 ft 25 kts 202°
2026-05-06 15:51 26.09607 91.57987 174 ft 15 kts 205°
2026-05-06 15:52 26.09515 91.57972 171 ft 9 kts 120°
2026-05-06 15:52 26.09532 91.58005 171 ft 5 kts 29°
2026-05-06 15:52 26.09536 91.58007 172 ft 0 kts 26°
2026-05-06 15:54 26.09567 91.58023 173 ft 18 kts 23°
2026-05-06 15:54 26.09915 91.58182 175 ft 91 kts 22°
2026-05-06 15:55 26.10634 91.58514 177 ft 124 kts 23°
2026-05-06 15:55 26.11484 91.58882 174 ft 137 kts 18°
2026-05-06 15:55 26.12454 91.59279 381 ft 164 kts 20°
2026-05-06 15:55 26.13572 91.59801 1048 ft 185 kts 21°
2026-05-06 15:56 26.14826 91.60361 1740 ft 201 kts 22°
2026-05-06 15:56 26.16195 91.60799 2476 ft 214 kts 356°
2026-05-06 15:56 26.17619 91.60264 3222 ft 225 kts 322°
2026-05-06 15:56 26.18667 91.58917 4020 ft 240 kts 302°
2026-05-06 15:57 26.19645 91.57376 5052 ft 247 kts 304°
2026-05-06 15:57 26.20667 91.55811 5946 ft 261 kts 304°
2026-05-06 15:57 26.21727 91.54121 6831 ft 271 kts 296°
2026-05-06 15:57 26.22255 91.52101 7658 ft 276 kts 270°
2026-05-06 15:58 26.21904 91.50024 8639 ft 275 kts 245°
2026-05-06 15:58 26.20809 91.48274 9544 ft 280 kts 224°
2026-05-06 15:58 26.19483 91.46667 10336 ft 287 kts 237°
2026-05-06 15:58 26.18422 91.44720 10864 ft 303 kts 238°
2026-05-06 15:59 26.17236 91.42692 11298 ft 321 kts 236°
2026-05-06 15:59 26.15957 91.40592 11881 ft 333 kts 236°
2026-05-06 15:59 26.15531 91.39902 12117 ft 334 kts 236°
2026-05-06 16:00 26.14887 91.38864 12557 ft 334 kts 236°
2026-05-06 16:00 26.13555 91.36737 13391 ft 337 kts 235°
2026-05-06 16:01 26.12658 91.35316 13865 ft 341 kts 235°
2026-05-06 16:01 26.10818 91.32413 14885 ft 344 kts 235°
2026-05-06 16:01 26.09433 91.30234 15640 ft 346 kts 235°
2026-05-06 16:01 26.08054 91.28069 16343 ft 349 kts 234°
2026-05-06 16:02 26.06644 91.25854 17060 ft 351 kts 234°
2026-05-06 16:02 26.05227 91.23630 17772 ft 354 kts 234°
2026-05-06 16:02 26.04281 91.22147 18213 ft 356 kts 234°
2026-05-06 16:02 26.02353 91.19123 18986 ft 360 kts 235°
2026-05-06 16:03 26.00920 91.16877 19570 ft 362 kts 235°
2026-05-06 16:03 25.99444 91.14567 20162 ft 364 kts 235°
2026-05-06 16:03 25.97973 91.12263 20720 ft 366 kts 235°
2026-05-06 16:03 25.96514 91.09982 21274 ft 369 kts 235°
2026-05-06 16:04 25.95024 91.07652 21829 ft 371 kts 236°
2026-05-06 16:04 25.93522 91.05305 22370 ft 373 kts 236°
2026-05-06 16:04 25.92018 91.02955 22911 ft 375 kts 236°
2026-05-06 16:04 25.91011 91.01384 23261 ft 377 kts 236°
2026-05-06 16:05 25.88968 90.98195 23850 ft 380 kts 236°
2026-05-06 16:05 25.87433 90.95801 24311 ft 381 kts 236°
2026-05-06 16:05 25.85893 90.93401 24724 ft 383 kts 236°
2026-05-06 16:05 25.84871 90.91808 25008 ft 384 kts 236°
2026-05-06 16:06 25.82808 90.88596 25582 ft 387 kts 236°
2026-05-06 16:06 25.81241 90.86157 26021 ft 388 kts 236°
2026-05-06 16:06 25.79669 90.83712 26443 ft 391 kts 236°
2026-05-06 16:06 25.78085 90.81249 26847 ft 393 kts 236°
2026-05-06 16:07 25.77033 90.79614 27121 ft 394 kts 236°
2026-05-06 16:07 25.75442 90.77142 27517 ft 396 kts 236°
2026-05-06 16:07 25.73834 90.74646 27897 ft 398 kts 236°
2026-05-06 16:07 25.72224 90.72147 28272 ft 399 kts 236°
2026-05-06 16:08 25.70078 90.68819 28776 ft 402 kts 236°
2026-05-06 16:08 25.68450 90.66296 29140 ft 404 kts 236°
2026-05-06 16:08 25.66811 90.63758 29479 ft 406 kts 235°
2026-05-06 16:08 25.65699 90.62036 29707 ft 407 kts 236°
2026-05-06 16:09 25.64069 90.59514 30022 ft 409 kts 236°
2026-05-06 16:09 25.62408 90.56944 30300 ft 411 kts 236°
2026-05-06 16:09 25.60738 90.54363 30606 ft 412 kts 235°
2026-05-06 16:09 25.59065 90.51777 30897 ft 413 kts 235°
2026-05-06 16:10 25.56843 90.48347 31275 ft 415 kts 235°
2026-05-06 16:10 25.55702 90.46586 31455 ft 416 kts 236°
2026-05-06 16:10 25.54018 90.43988 31723 ft 418 kts 235°
2026-05-06 16:10 25.52339 90.41401 32005 ft 418 kts 235°
2026-05-06 16:11 25.50646 90.38792 32396 ft 417 kts 236°
2026-05-06 16:11 25.48953 90.36185 32801 ft 415 kts 236°
2026-05-06 16:11 25.47273 90.33600 33196 ft 413 kts 236°
2026-05-06 16:11 25.45596 90.31020 33607 ft 412 kts 236°
2026-05-06 16:12 25.43929 90.28457 33990 ft 410 kts 236°
2026-05-06 16:12 25.42263 90.25897 34325 ft 409 kts 236°
2026-05-06 16:12 25.40599 90.23342 34605 ft 409 kts 236°
2026-05-06 16:12 25.38938 90.20793 34896 ft 409 kts 236°
2026-05-06 16:13 25.37299 90.18278 35178 ft 408 kts 236°
2026-05-06 16:13 25.35642 90.15737 35443 ft 408 kts 236°
2026-05-06 16:13 25.33980 90.13190 35724 ft 408 kts 236°
2026-05-06 16:13 25.32326 90.10658 36014 ft 407 kts 236°
2026-05-06 16:14 25.30666 90.08116 36274 ft 407 kts 236°
2026-05-06 16:14 25.29013 90.05586 36549 ft 406 kts 236°
2026-05-06 16:14 25.27363 90.03064 36818 ft 405 kts 236°
2026-05-06 16:14 25.25851 90.00488 37082 ft 404 kts 239°
2026-05-06 16:15 25.24353 89.97870 37342 ft 403 kts 239°
2026-05-06 16:15 25.22844 89.95258 37584 ft 403 kts 239°
2026-05-06 16:15 25.21334 89.92656 37802 ft 403 kts 239°
2026-05-06 16:15 25.19823 89.90056 37860 ft 402 kts 239°
2026-05-06 16:16 25.16803 89.84870 37864 ft 402 kts 239°
2026-05-06 16:16 25.13779 89.79680 37862 ft 402 kts 239°
2026-05-06 16:17 25.10771 89.74524 37861 ft 403 kts 239°
2026-05-06 16:17 25.07733 89.69322 37860 ft 404 kts 239°
2026-05-06 16:18 25.04688 89.64116 37865 ft 404 kts 239°
2026-05-06 16:18 25.01634 89.58898 37860 ft 405 kts 239°
2026-05-06 16:19 24.98578 89.53683 37862 ft 405 kts 239°
2026-05-06 16:19 24.95542 89.48508 37863 ft 406 kts 239°
2026-05-06 16:20 24.92474 89.43284 37859 ft 406 kts 239°
2026-05-06 16:20 24.89410 89.38070 37857 ft 406 kts 239°
2026-05-06 16:21 24.86333 89.32852 37854 ft 406 kts 239°
2026-05-06 16:21 24.83269 89.27666 37850 ft 407 kts 239°
2026-05-06 16:22 24.80181 89.22446 37851 ft 407 kts 239°
2026-05-06 16:22 24.77089 89.17224 37846 ft 407 kts 239°
2026-05-06 16:23 24.73991 89.11997 37849 ft 408 kts 239°
2026-05-06 16:23 24.70911 89.06807 37849 ft 408 kts 239°
2026-05-06 16:24 24.66009 88.98566 37847 ft 409 kts 238°
2026-05-06 16:24 24.61242 88.90521 37852 ft 409 kts 239°
2026-05-06 16:25 24.55626 88.81200 37848 ft 410 kts 239°
2026-05-06 16:25 24.50958 88.73243 37848 ft 410 kts 239°
2026-05-06 16:26 24.46407 88.65662 37833 ft 411 kts 238°
2026-05-06 16:26 24.40282 88.55077 37847 ft 411 kts 239°
2026-05-06 16:27 24.34246 88.44412 37845 ft 412 kts 240°
2026-05-06 16:27 24.29723 88.36431 37841 ft 413 kts 240°
2026-05-06 16:28 24.23681 88.25850 37836 ft 413 kts 240°
2026-05-06 16:28 24.17996 88.15827 37835 ft 414 kts 241°
2026-05-06 16:29 24.13157 88.07310 37836 ft 414 kts 240°
2026-05-06 16:29 24.08621 87.99309 37837 ft 414 kts 240°
2026-05-06 16:30 24.03535 87.90410 37832 ft 415 kts 240°
2026-05-06 16:30 23.97920 87.80702 37833 ft 415 kts 240°
2026-05-06 16:31 23.91778 87.70029 37835 ft 415 kts 240°
2026-05-06 16:31 23.85628 87.59355 37833 ft 415 kts 241°
2026-05-06 16:32 23.79496 87.48677 37830 ft 415 kts 240°
2026-05-06 16:32 23.75206 87.41258 37830 ft 414 kts 240°
2026-05-06 16:33 23.72130 87.35944 37833 ft 414 kts 240°
2026-05-06 16:34 23.67355 87.28086 37831 ft 417 kts 232°
2026-05-06 16:34 23.63393 87.23521 37825 ft 423 kts 219°
2026-05-06 16:35 23.58311 87.20169 37841 ft 428 kts 216°
2026-05-06 16:35 23.48671 87.14095 37839 ft 429 kts 216°
2026-05-06 16:36 23.38308 87.07608 37845 ft 430 kts 214°
2026-05-06 16:36 23.27896 87.01167 37853 ft 430 kts 215°
2026-05-06 16:37 23.17542 86.94735 37857 ft 432 kts 214°
2026-05-06 16:37 23.07086 86.88292 37859 ft 433 kts 214°
2026-05-06 16:38 22.96613 86.81798 37863 ft 433 kts 215°
2026-05-06 16:38 22.86140 86.75355 37867 ft 433 kts 214°
2026-05-06 16:39 22.75645 86.68931 37875 ft 434 kts 214°
2026-05-06 16:39 22.67854 86.64123 37876 ft 433 kts 214°
2026-05-06 16:40 22.57374 86.57652 37881 ft 433 kts 214°
2026-05-06 16:40 22.46878 86.51223 37878 ft 433 kts 214°
2026-05-06 16:41 22.36370 86.44852 37888 ft 434 kts 213°
2026-05-06 16:41 22.25991 86.38454 37888 ft 433 kts 214°
2026-05-06 16:42 22.15491 86.32062 37902 ft 433 kts 213°
2026-05-06 16:42 22.04996 86.25685 37912 ft 433 kts 214°
2026-05-06 16:43 21.94524 86.19335 37920 ft 433 kts 213°
2026-05-06 16:43 21.84040 86.13027 37915 ft 431 kts 213°
2026-05-06 16:44 21.76295 86.08281 37921 ft 431 kts 213°
2026-05-06 16:44 21.66113 86.02086 37907 ft 432 kts 213°
2026-05-06 16:45 21.57975 85.97246 37909 ft 433 kts 213°
2026-05-06 16:45 21.50952 85.92475 37918 ft 431 kts 216°
2026-05-06 16:46 21.40825 85.85518 37894 ft 432 kts 217°
2026-05-06 16:46 21.30746 85.78600 37879 ft 433 kts 216°
2026-05-06 16:47 21.20581 85.71626 37872 ft 434 kts 216°
2026-05-06 16:47 21.10407 85.64656 37868 ft 435 kts 215°
2026-05-06 16:48 21.00177 85.57684 37854 ft 436 kts 216°
2026-05-06 16:48 20.89939 85.50714 37844 ft 437 kts 215°
2026-05-06 16:49 20.79783 85.43768 37844 ft 437 kts 215°
2026-05-06 16:49 20.69482 85.36853 37837 ft 438 kts 216°
2026-05-06 16:50 20.61802 85.31602 37839 ft 438 kts 215°
2026-05-06 16:50 20.51549 85.24607 37832 ft 439 kts 214°
2026-05-06 16:51 20.42420 85.18422 37837 ft 439 kts 214°
2026-05-06 16:51 20.33585 85.12468 37843 ft 439 kts 215°
2026-05-06 16:52 20.23295 85.05474 37853 ft 440 kts 215°
2026-05-06 16:52 20.12933 84.98521 37852 ft 440 kts 215°
2026-05-06 16:53 20.02547 84.91643 37855 ft 440 kts 216°
2026-05-06 16:53 19.92588 84.85008 37854 ft 441 kts 216°
2026-05-06 16:54 19.84505 84.79505 37855 ft 442 kts 214°
2026-05-06 16:54 19.74098 84.72546 37858 ft 442 kts 214°
2026-05-06 16:55 19.65257 84.66526 37868 ft 441 kts 217°
2026-05-06 16:55 19.56297 84.60023 37875 ft 442 kts 217°
2026-05-06 16:56 19.46119 84.52681 37882 ft 442 kts 216°
2026-05-06 16:56 19.35972 84.45353 37879 ft 442 kts 216°
2026-05-06 16:57 19.27783 84.39498 37869 ft 443 kts 216°
2026-05-06 16:57 19.21235 84.34788 37893 ft 443 kts 216°
2026-05-06 16:58 19.11048 84.27489 37890 ft 442 kts 216°
2026-05-06 16:58 19.00868 84.20205 37892 ft 442 kts 216°
2026-05-06 16:59 18.90671 84.12914 37891 ft 443 kts 215°
2026-05-06 16:59 18.84774 84.08709 37887 ft 443 kts 216°
2026-05-06 17:00 18.75472 84.02052 37884 ft 443 kts 217°
2026-05-06 17:00 18.65258 83.94754 37867 ft 443 kts 216°
2026-05-06 17:01 18.55009 83.87509 37872 ft 444 kts 216°
2026-05-06 17:01 18.44771 83.80237 37853 ft 444 kts 216°
2026-05-06 17:02 18.34587 83.73035 37852 ft 444 kts 215°
2026-05-06 17:02 18.24335 83.65807 37850 ft 444 kts 216°
2026-05-06 17:03 18.14074 83.58523 37842 ft 445 kts 216°
2026-05-06 17:03 18.04204 83.51492 37842 ft 446 kts 215°
2026-05-06 17:04 17.96155 83.45866 37846 ft 446 kts 215°
2026-05-06 17:04 17.85838 83.38590 37848 ft 446 kts 216°
2026-05-06 17:05 17.78107 83.33191 37858 ft 447 kts 216°
2026-05-06 17:05 17.72950 83.29547 37857 ft 447 kts 215°
2026-05-06 17:06 17.67960 83.25706 37842 ft 443 kts 229°
2026-05-06 17:06 17.66168 83.23104 37867 ft 441 kts 242°
2026-05-06 17:06 17.64739 83.20262 37850 ft 442 kts 243°
2026-05-06 17:07 17.59527 83.09157 37849 ft 444 kts 244°
2026-05-06 17:07 17.54182 82.97508 37842 ft 444 kts 245°
2026-05-06 17:08 17.48841 82.85831 37840 ft 444 kts 245°
2026-05-06 17:08 17.43530 82.74161 37843 ft 445 kts 244°
2026-05-06 17:09 17.38195 82.62571 37844 ft 445 kts 244°
2026-05-06 17:09 17.32994 82.51199 37845 ft 445 kts 244°
2026-05-06 17:10 17.28773 82.42196 37840 ft 445 kts 245°
2026-05-06 17:10 17.24244 82.32261 37840 ft 445 kts 244°
2026-05-06 17:11 17.19398 82.21848 37846 ft 445 kts 245°
2026-05-06 17:11 17.14849 82.12117 37846 ft 445 kts 244°
2026-05-06 17:12 17.09915 82.01608 37853 ft 444 kts 244°
2026-05-06 17:12 17.04480 81.90047 37855 ft 444 kts 243°
2026-05-06 17:13 16.99593 81.79740 37856 ft 444 kts 244°
2026-05-06 17:13 16.96861 81.73974 37853 ft 444 kts 244°
2026-05-06 17:14 16.94124 81.68196 37849 ft 444 kts 244°
2026-05-06 17:14 16.91391 81.62430 37843 ft 444 kts 244°
2026-05-06 17:15 16.88645 81.56639 37842 ft 444 kts 244°
2026-05-06 17:15 16.85904 81.50865 37838 ft 444 kts 244°
2026-05-06 17:16 16.83160 81.45091 37838 ft 444 kts 244°
2026-05-06 17:16 16.80414 81.39318 37837 ft 444 kts 244°
2026-05-06 17:17 16.77682 81.33578 37837 ft 444 kts 244°
2026-05-06 17:17 16.74933 81.27808 37834 ft 444 kts 244°
2026-05-06 17:18 16.72181 81.22037 37835 ft 444 kts 244°
2026-05-06 17:18 16.69429 81.16273 37832 ft 444 kts 244°
2026-05-06 17:19 16.66695 81.10549 37835 ft 444 kts 244°
2026-05-06 17:19 16.64518 81.05994 37833 ft 444 kts 244°
2026-05-06 17:20 16.61758 81.00224 37831 ft 444 kts 244°
2026-05-06 17:20 16.58995 80.94453 37828 ft 444 kts 244°
2026-05-06 17:21 16.56257 80.88739 37831 ft 444 kts 244°
2026-05-06 17:21 16.53393 80.83017 37822 ft 444 kts 237°
2026-05-06 17:22 16.49956 80.77654 37831 ft 445 kts 237°
2026-05-06 17:22 16.46505 80.72302 37826 ft 445 kts 237°
2026-05-06 17:23 16.43050 80.66953 37833 ft 445 kts 237°
2026-05-06 17:23 16.39586 80.61596 37833 ft 445 kts 237°
2026-05-06 17:24 16.36152 80.56290 37839 ft 445 kts 237°
2026-05-06 17:24 16.32688 80.50940 37840 ft 446 kts 236°
2026-05-06 17:25 16.29221 80.45590 37842 ft 446 kts 236°
2026-05-06 17:25 16.25774 80.40276 37846 ft 446 kts 236°
2026-05-06 17:26 16.22310 80.34938 37848 ft 446 kts 236°
2026-05-06 17:26 16.18829 80.29578 37848 ft 446 kts 236°
2026-05-06 17:27 16.15371 80.24258 37850 ft 446 kts 236°
2026-05-06 17:27 16.11877 80.18886 37856 ft 446 kts 236°
2026-05-06 17:28 16.06476 80.10593 37861 ft 447 kts 236°
2026-05-06 17:28 15.99541 79.99984 37867 ft 447 kts 236°
2026-05-06 17:29 15.92509 79.89312 37869 ft 447 kts 236°
2026-05-06 17:29 15.85530 79.78632 37868 ft 447 kts 235°
2026-05-06 17:30 15.78628 79.67853 37865 ft 448 kts 235°
2026-05-06 17:30 15.72303 79.58195 37866 ft 448 kts 234°
2026-05-06 17:31 15.66725 79.49667 37869 ft 448 kts 235°
2026-05-06 17:31 15.59626 79.39026 37870 ft 448 kts 236°
2026-05-06 17:32 15.52599 79.28325 37871 ft 448 kts 236°
2026-05-06 17:32 15.45556 79.17642 37875 ft 449 kts 234°
2026-05-06 17:33 15.38559 79.06955 37873 ft 449 kts 234°
2026-05-06 17:33 15.32404 78.97619 37870 ft 449 kts 234°
2026-05-06 17:34 15.26267 78.88376 37873 ft 450 kts 236°
2026-05-06 17:34 15.19243 78.77653 37869 ft 450 kts 235°
2026-05-06 17:35 15.15648 78.72286 37867 ft 449 kts 235°
2026-05-06 17:35 15.12138 78.66994 37859 ft 449 kts 235°
2026-05-06 17:36 15.07647 78.62653 37867 ft 447 kts 208°
2026-05-06 17:36 15.04324 78.60904 37862 ft 448 kts 207°
2026-05-06 17:36 14.93030 78.55357 37857 ft 450 kts 205°
2026-05-06 17:37 14.81748 78.49927 37860 ft 451 kts 205°
2026-05-06 17:37 14.73686 78.46072 37861 ft 451 kts 205°
2026-05-06 17:38 14.67993 78.43332 37860 ft 452 kts 205°
2026-05-06 17:38 14.62294 78.40591 37863 ft 452 kts 205°
2026-05-06 17:39 14.56631 78.37869 37870 ft 452 kts 205°
2026-05-06 17:39 14.50929 78.35131 37869 ft 452 kts 205°
2026-05-06 17:40 14.48076 78.33762 37525 ft 451 kts 205°
2026-05-06 17:40 14.45232 78.32397 37174 ft 451 kts 205°
2026-05-06 17:40 14.42382 78.31030 36686 ft 452 kts 205°
2026-05-06 17:40 14.39536 78.29664 35977 ft 452 kts 205°
2026-05-06 17:41 14.36670 78.28290 35232 ft 461 kts 205°
2026-05-06 17:41 14.33692 78.26863 34571 ft 481 kts 205°
2026-05-06 17:41 14.27641 78.23982 34513 ft 483 kts 204°
2026-05-06 17:42 14.21491 78.21153 34518 ft 484 kts 204°
2026-05-06 17:42 14.15391 78.18308 34518 ft 485 kts 205°
2026-05-06 17:43 14.09357 78.15406 34166 ft 458 kts 205°
2026-05-06 17:43 14.06513 78.14043 33887 ft 449 kts 205°
2026-05-06 17:43 14.03687 78.12690 33861 ft 445 kts 205°
2026-05-06 17:44 13.98159 78.10043 33002 ft 437 kts 205°
2026-05-06 17:44 13.95416 78.08730 32097 ft 434 kts 205°
2026-05-06 17:44 13.92683 78.07422 31198 ft 431 kts 205°
2026-05-06 17:45 13.89964 78.06122 30292 ft 430 kts 206°
2026-05-06 17:45 13.87261 78.04830 29305 ft 428 kts 206°
2026-05-06 17:45 13.84566 78.03542 28290 ft 426 kts 206°
2026-05-06 17:45 13.81884 78.02260 27316 ft 423 kts 206°
2026-05-06 17:46 13.79343 78.01047 26416 ft 420 kts 206°
2026-05-06 17:46 13.76778 77.99821 25533 ft 417 kts 206°
2026-05-06 17:46 13.74158 77.98569 24656 ft 414 kts 206°
2026-05-06 17:46 13.71552 77.97325 23801 ft 411 kts 206°
2026-05-06 17:47 13.68973 77.96095 22846 ft 407 kts 206°
2026-05-06 17:47 13.66416 77.94876 21871 ft 403 kts 206°
2026-05-06 17:47 13.63874 77.93674 20917 ft 399 kts 206°
2026-05-06 17:47 13.61367 77.92488 20007 ft 396 kts 206°
2026-05-06 17:48 13.58949 77.91344 19137 ft 392 kts 206°
2026-05-06 17:48 13.56854 77.90353 18392 ft 389 kts 206°
2026-05-06 17:48 13.54421 77.89202 17417 ft 385 kts 206°
2026-05-06 17:48 13.52147 77.88126 16484 ft 383 kts 206°
2026-05-06 17:49 13.49732 77.86985 15567 ft 380 kts 206°
2026-05-06 17:49 13.47488 77.85925 15986 ft 341 kts 206°
2026-05-06 17:49 13.45267 77.84874 15920 ft 361 kts 206°
2026-05-06 17:49 13.42926 77.83768 15859 ft 379 kts 206°
2026-05-06 17:50 13.40489 77.82617 15819 ft 389 kts 206°
2026-05-06 17:50 13.38078 77.81479 15787 ft 372 kts 206°
2026-05-06 17:50 13.35795 77.80401 15681 ft 349 kts 206°
2026-05-06 17:50 13.33652 77.79375 15352 ft 333 kts 209°
2026-05-06 17:51 13.31868 77.77828 14970 ft 354 kts 237°
2026-05-06 17:51 13.30930 77.75477 15020 ft 364 kts 263°
2026-05-06 17:51 13.30950 77.72908 15058 ft 351 kts 276°
2026-05-06 17:51 13.31018 77.70469 14861 ft 337 kts 272°
2026-05-06 17:52 13.31049 77.68079 14331 ft 332 kts 272°
2026-05-06 17:52 13.31073 77.65726 13745 ft 328 kts 272°
2026-05-06 17:52 13.31093 77.63396 13068 ft 325 kts 272°
2026-05-06 17:52 13.31112 77.61097 12402 ft 321 kts 272°
2026-05-06 17:53 13.31129 77.58818 11732 ft 317 kts 272°
2026-05-06 17:53 13.31146 77.56563 11044 ft 315 kts 272°
2026-05-06 17:53 13.31163 77.54319 10366 ft 314 kts 272°
2026-05-06 17:53 13.31179 77.52086 9791 ft 310 kts 272°
2026-05-06 17:54 13.31145 77.49930 9275 ft 303 kts 270°
2026-05-06 17:54 13.31091 77.47812 9018 ft 287 kts 270°
2026-05-06 17:54 13.31039 77.45825 9024 ft 276 kts 270°
2026-05-06 17:54 13.30970 77.43848 8990 ft 277 kts 265°
2026-05-06 17:55 13.30333 77.42024 8955 ft 266 kts 231°
2026-05-06 17:55 13.28898 77.40973 9032 ft 254 kts 195°
2026-05-06 17:55 13.27151 77.40805 9004 ft 253 kts 169°
2026-05-06 17:55 13.25609 77.41524 8723 ft 241 kts 135°
2026-05-06 17:56 13.24607 77.42864 8136 ft 237 kts 120°
2026-05-06 17:56 13.23749 77.44309 7559 ft 235 kts 118°
2026-05-06 17:56 13.22914 77.45730 7081 ft 231 kts 119°
2026-05-06 17:56 13.22099 77.47140 6558 ft 229 kts 119°
2026-05-06 17:57 13.21325 77.48513 6164 ft 220 kts 116°
2026-05-06 17:57 13.20905 77.49919 6022 ft 192 kts 96°
2026-05-06 17:57 13.20851 77.51259 6024 ft 190 kts 90°
2026-05-06 17:57 13.20846 77.52608 5903 ft 185 kts 91°
2026-05-06 17:58 13.20837 77.53868 5705 ft 169 kts 91°
2026-05-06 17:58 13.20827 77.55057 5512 ft 166 kts 92°
2026-05-06 17:58 13.20819 77.56234 5326 ft 165 kts 92°
2026-05-06 17:58 13.20809 77.57396 5130 ft 163 kts 92°
2026-05-06 17:59 13.20799 77.58554 4928 ft 162 kts 94°
2026-05-06 17:59 13.20790 77.59693 4725 ft 160 kts 94°
2026-05-06 17:59 13.20782 77.60754 4540 ft 139 kts 94°
2026-05-06 17:59 13.20773 77.61726 4357 ft 133 kts 94°
2026-05-06 18:00 13.20765 77.62666 4187 ft 132 kts 94°
2026-05-06 18:00 13.20757 77.63608 4013 ft 132 kts 95°
2026-05-06 18:00 13.20750 77.64557 3846 ft 133 kts 94°
2026-05-06 18:00 13.20738 77.65485 3673 ft 134 kts 91°
2026-05-06 18:01 13.20734 77.66447 3482 ft 135 kts 93°
2026-05-06 18:01 13.20724 77.67429 3287 ft 140 kts 91°
2026-05-06 18:01 13.20726 77.68422 3087 ft 139 kts 91°
2026-05-06 18:01 13.20713 77.69278 3014 ft 115 kts 89°
2026-05-06 18:02 13.20708 77.69867 3013 ft 56 kts 91°
2026-05-06 18:02 13.20705 77.70263 3014 ft 55 kts 91°
2026-05-06 18:02 13.20653 77.70525 3015 ft 21 kts 117°
2026-05-06 18:02 13.20614 77.70595 3014 ft 8 kts 121°
2026-05-06 18:03 13.20580 77.70654 3014 ft 11 kts 120°
2026-05-06 18:03 13.20539 77.70728 3018 ft 13 kts 116°
2026-05-06 18:03 13.20528 77.70823 3013 ft 13 kts 90°
2026-05-06 18:03 13.20528 77.70927 3013 ft 16 kts 90°
2026-05-06 18:04 13.20527 77.71046 3013 ft 18 kts 90°
2026-05-06 18:04 13.20526 77.71178 3013 ft 19 kts 90°
2026-05-06 18:04 13.20511 77.71278 3015 ft 10 kts 147°
2026-05-06 18:04 13.20441 77.71276 3013 ft 10 kts 179°
2026-05-06 18:05 13.20369 77.71276 3014 ft 10 kts 180°
2026-05-06 18:05 13.20294 77.71276 3014 ft 11 kts 175°
2026-05-06 18:05 13.20259 77.71336 3014 ft 11 kts 93°
2026-05-06 18:05 13.20258 77.71422 3014 ft 13 kts 103°
2026-05-06 18:06 13.20198 77.71493 3014 ft 14 kts 134°
2026-05-06 18:06 13.20184 77.71585 3014 ft 14 kts 89°
2026-05-06 18:06 13.20184 77.71692 3014 ft 16 kts 90°
2026-05-06 18:06 13.20181 77.71813 3014 ft 18 kts 92°
2026-05-06 18:07 13.20180 77.71947 3014 ft 20 kts 90°
2026-05-06 18:07 13.20180 77.72063 3014 ft 11 kts 90°
2026-05-06 18:07 13.20149 77.72111 3014 ft 9 kts 171°
2026-05-06 18:07 13.20081 77.72112 3014 ft 11 kts 180°
2026-05-06 18:08 13.20030 77.72102 3014 ft 6 kts 231°
2026-05-06 18:08 13.20026 77.72059 3014 ft 6 kts 271°
2026-05-06 18:08 13.20026 77.72035 3014 ft 1 kts 269°
2026-05-06 18:08 13.20026 77.72023 3014 ft 2 kts 270°
2026-05-06 18:09 13.20026 77.72019 3014 ft 1 kts 270°
2026-05-06 18:09 13.20026 77.72018 3014 ft 0 kts 270°